Snowfall_Accumulation
nan nan nan nan nan nan nan nan nan nan nan nan nan nan nan nan nan 0.0 0.0 0.0 0.0 0.1 0.2 0.0 0.0 0.0 0.0 0.0 0.1 0.0 0.6 0.2 0.2 0.5 0.6 0.6 0.5 0.1 0.2 0.0 0.0 0.3 0.9 2.1 0.6 0.6 1.1 0.0 0.0 0.1 0.2 0.0 0.0 0.1
nan nan nan nan nan nan nan nan nan nan nan nan nan nan nan nan nan nan 0.0 0.0 0.0 0.0 0.1 0.0 0.0 0.0 0.0 0.0 0.0 0.0 0.1 0.0 0.0 0.0 0.1 0.1 0.4 0.7 0.1 1.5 0.1 3.1 0.5 1.2 0.3 1.0 0.0 0.0 0.0 0.0 0.0 0.0 0.0 0.0
nan nan nan nan nan nan nan nan nan nan nan nan nan nan nan nan nan nan 0.0 0.0 0.0 0.2 0.2 0.1 0.0 0.0 0.0 0.0 0.0 0.1 0.0 0.0 0.1 0.0 0.5 0.3 0.4 0.3 1.3 0.6 0.3 0.0 0.0 0.6 0.0 0.0 0.0 0.0 0.0 0.0 0.0 0.0 0.0 0.0
nan nan nan nan nan nan nan nan nan nan nan nan nan nan nan nan nan nan 0.0 0.0 0.0 0.0 3.0 1.0 0.0 0.0 0.0 0.0 0.0 0.0 0.0 0.0 0.0 0.0 0.3 0.4 0.5 0.0 0.4 0.3 0.9 0.8 0.3 0.2 0.0 0.0 0.0 0.0 0.0 0.0 0.0 0.0 0.0 0.0
nan nan nan nan nan nan nan nan nan nan nan nan nan nan nan nan nan nan 0.0 0.0 0.0 0.1 1.5 0.3 0.0 0.0 0.0 0.0 0.0 0.0 0.0 0.0 0.0 0.1 0.6 0.5 0.0 0.1 0.0 0.1 1.2 0.2 1.0 2.3 2.9 0.1 0.1 0.0 0.0 0.0 0.0 0.0 0.0 0.0
nan nan nan nan nan nan nan nan nan nan nan nan nan nan nan nan nan 0.0 0.9 0.0 0.0 0.0 0.7 2.1 0.0 0.0 0.0 0.0 0.0 0.0 0.0 0.0 0.0 0.0 0.3 0.0 0.0 0.1 0.8 0.1 0.0 0.0 0.1 0.2 1.6 0.0 0.0 0.0 0.0 0.0 0.1 0.1 0.1 0.3
nan nan nan nan nan nan nan nan nan nan nan nan nan nan nan nan 0.0 0.0 0.0 0.0 nan 0.0 1.0 1.9 0.6 0.0 0.0 0.0 0.0 0.0 0.0 0.0 0.0 0.0 0.1 0.0 0.0 0.0 0.3 0.2 0.0 0.0 0.0 0.0 0.0 0.1 0.8 0.4 2.3 0.1 0.1 0.1 0.1 0.0
nan nan nan nan nan nan nan nan nan nan nan nan nan nan nan nan nan 0.0 0.0 nan nan 0.1 0.1 2.8 1.6 0.3 0.0 0.3 0.3 0.0 0.0 0.0 0.0 0.0 0.1 0.1 0.0 0.1 0.3 0.0 0.0 0.0 0.0 0.0 0.0 0.0 0.1 0.1 0.1 0.1 0.0 0.0 0.0 0.0
nan nan nan nan nan nan nan nan nan nan nan nan nan nan 0.0 0.0 0.3 0.0 nan nan 0.0 0.2 1.0 1.9 1.2 4.4 0.0 0.3 0.1 0.0 0.0 2.4 0.0 0.6 0.2 0.0 0.1 0.4 0.1 0.0 0.0 0.0 0.0 0.0 0.0 0.0 0.0 0.0 0.0 0.0 0.0 0.0 0.0 0.0
nan nan nan nan nan nan nan nan nan nan nan nan 0.0 0.6 8.6 0.1 nan nan 0.0 0.5 0.8 0.4 0.2 0.8 0.0 1.7 0.2 0.3 0.9 0.7 0.3 0.9 2.1 0.6 0.0 0.4 0.2 0.0 0.0 0.0 0.0 0.0 0.0 0.0 0.0 0.0 0.0 0.0 0.0 0.0 0.0 0.0 0.0 0.0
nan nan nan nan nan nan nan nan nan nan nan 0.2 2.3 0.7 0.0 nan 0.0 0.2 6.2 3.7 1.3 1.0 0.1 0.1 0.0 0.4 0.0 1.5 1.9 0.4 2.3 1.4 2.3 0.3 0.6 0.8 1.3 0.5 0.0 0.0 0.0 0.0 0.0 0.0 0.0 0.0 0.0 0.0 0.0 0.0 0.0 0.0 0.0 0.0
nan nan nan nan nan nan nan nan nan 0.0 0.1 0.0 0.0 0.0 0.0 0.1 2.1 3.5 4.4 2.0 0.3 0.1 0.2 0.3 0.3 0.1 0.2 0.0 1.2 1.9 0.9 1.5 0.5 0.1 3.2 1.9 2.4 0.1 0.0 0.1 0.0 0.0 0.0 0.0 0.0 0.0 0.0 0.0 0.0 0.0 0.0 0.2 0.5 1.5
nan nan nan nan nan nan nan nan nan nan nan 0.0 0.1 0.4 1.4 3.6 28.4 2.7 3.9 1.6 4.0 0.4 0.6 0.4 3.3 0.3 0.3 0.0 2.5 2.6 5.7 5.0 0.3 9.9 2.4 1.7 0.3 0.1 0.1 0.0 0.0 0.0 0.0 0.0 0.0 0.0 0.0 0.1 0.0 0.2 1.9 2.6 2.7 3.0
nan nan nan nan nan nan nan nan nan 0.0 0.0 0.7 1.1 31.3 6.5 3.7 1.7 1.2 0.7 0.4 0.6 0.4 0.3 0.2 0.6 0.4 0.5 1.3 1.7 4.6 2.0 2.6 7.8 6.4 3.3 2.3 0.3 0.2 0.1 0.1 0.1 0.5 0.5 0.3 0.7 0.3 0.5 1.2 2.2 3.0 4.2 4.4 2.9 1.8
nan nan nan nan nan nan nan nan nan 0.0 0.4 2.0 0.7 15.4 4.8 2.0 1.8 1.9 1.1 0.8 0.6 0.3 0.3 0.5 0.3 0.3 1.4 3.5 1.4 0.7 5.2 5.8 4.1 4.2 3.3 2.5 0.3 0.2 0.7 0.5 0.8 2.2 3.9 3.6 3.9 4.4 5.7 4.3 3.1 4.7 4.4 3.9 2.6 6.1
nan nan 0.0 nan nan nan nan nan 0.1 0.2 0.5 0.7 0.3 2.2 2.0 4.3 10.4 7.7 4.0 3.3 0.4 0.5 0.4 0.6 0.7 1.9 2.6 1.7 0.6 1.9 1.3 4.9 4.4 2.5 1.7 0.7 0.4 0.7 0.9 2.3 3.7 4.0 3.5 4.4 4.6 3.9 5.8 6.9 6.9 6.6 7.0 7.4 10.9 9.6
nan 0.0 nan nan nan nan nan 0.4 0.2 0.3 0.9 0.1 8.8 2.2 3.8 3.7 7.4 5.9 3.1 1.7 0.5 1.7 5.8 2.0 3.2 0.6 1.3 1.8 0.3 0.9 5.8 3.5 2.7 2.2 1.4 0.3 1.3 2.2 3.6 2.9 4.0 3.2 4.0 4.2 4.8 4.3 5.0 4.9 4.7 3.5 5.8 7.8 6.2 7.5
0.0 0.0 nan nan nan nan 1.6 0.2 0.4 0.6 0.5 2.1 10.1 9.9 4.1 4.2 6.5 4.8 3.1 1.5 1.5 1.1 0.9 0.4 1.1 0.3 4.5 1.1 4.5 3.6 3.2 3.4 1.7 2.4 2.7 2.5 2.4 3.5 1.9 1.8 3.0 2.4 3.1 4.2 3.3 4.2 4.0 4.0 4.1 4.4 3.5 4.4 4.6 6.2
0.0 0.0 nan nan 0.0 0.6 1.4 0.2 0.1 1.2 5.3 3.1 3.9 2.7 2.8 7.4 4.4 3.0 4.1 2.9 1.2 0.6 1.4 1.3 1.8 2.4 4.3 2.3 4.5 5.4 4.9 3.2 5.4 6.1 6.8 6.5 4.4 4.6 4.4 3.6 3.0 3.5 3.5 3.5 2.1 2.6 3.0 3.2 2.3 2.3 2.4 2.9 3.4 5.5
nan nan nan nan nan 0.2 0.1 0.9 0.1 0.3 2.7 4.0 1.6 2.6 3.1 5.3 3.8 8.1 5.3 1.7 1.0 1.3 2.5 2.8 4.3 5.4 4.3 4.4 4.6 5.5 3.8 2.8 2.3 5.2 7.3 7.9 7.2 4.7 5.9 4.0 4.1 3.0 2.6 2.2 3.1 1.4 2.6 2.4 2.5 2.6 2.6 3.2 5.5 7.5
nan nan nan 0.0 0.1 0.0 0.2 0.8 0.3 0.6 1.6 2.1 1.7 0.5 6.6 1.2 3.1 5.4 3.5 0.7 4.2 3.7 3.3 4.0 6.7 5.0 4.6 6.6 4.3 2.8 3.5 1.4 3.0 2.2 3.2 7.9 7.7 3.4 3.9 4.4 2.8 2.7 2.4 3.9 5.6 5.9 3.6 4.6 4.2 3.3 12.0 13.3 8.8 6.3
0.0 nan 0.2 0.1 0.3 0.2 1.4 0.3 0.5 0.7 1.5 2.1 1.4 0.6 5.4 12.2 10.7 6.3 0.7 3.2 3.2 5.1 3.1 4.3 4.9 4.4 3.8 3.8 5.5 2.8 4.8 1.9 2.2 2.1 1.7 1.8 5.4 5.0 5.3 5.4 3.4 6.0 4.8 6.4 3.9 7.1 5.0 2.9 3.2 3.8 7.7 11.5 4.9 6.5
nan 0.1 0.4 0.2 1.3 4.8 15.9 0.5 0.9 0.7 3.7 3.4 1.1 2.2 5.4 4.8 3.1 0.2 5.3 2.0 4.7 5.5 4.5 3.6 3.9 3.8 4.2 5.7 2.7 2.9 4.6 2.1 3.7 5.0 5.6 5.0 4.4 5.0 4.6 4.6 4.3 8.0 6.6 4.6 2.5 3.9 4.6 3.1 4.5 10.5 7.4 8.0 8.9 18.5
nan 1.4 4.5 3.6 3.1 14.8 1.4 5.4 0.3 0.7 1.0 2.5 2.5 4.0 0.8 1.9 0.8 3.2 5.1 5.3 6.4 3.7 3.3 4.3 3.8 4.9 3.2 1.4 2.8 4.0 4.8 2.4 2.5 3.1 3.7 3.3 3.9 5.1 3.2 3.1 3.8 3.1 2.5 2.0 2.6 4.5 4.7 11.4 7.3 5.7 13.4 23.1 27.1 24.0
11.9 20.0 7.5 29.2 3.3 9.1 7.6 5.8 2.8 1.5 6.2 4.7 3.4 5.1 12.9 0.9 6.7 5.2 2.0 4.1 3.7 4.6 4.1 3.7 1.9 2.1 2.3 4.4 4.1 4.2 2.6 1.9 2.7 2.9 4.1 3.1 3.8 4.1 3.5 2.4 2.5 2.6 2.4 9.2 12.2 14.9 14.9 14.4 16.2 15.2 9.5 26.2 9.3 11.8
32.5 15.7 16.0 5.1 11.3 5.5 3.4 8.2 8.9 9.5 5.2 6.8 6.2 3.0 3.1 6.4 6.3 7.5 2.0 5.5 8.0 5.3 17.4 13.8 8.8 4.1 2.9 2.0 3.0 2.8 2.9 1.9 1.5 2.5 3.6 2.3 2.4 7.0 9.0 7.9 7.0 5.8 3.3 6.4 12.5 20.1 14.8 16.8 19.0 10.3 18.4 10.0 9.2 22.8
27.7 18.3 1.6 0.6 1.1 0.6 10.0 7.8 1.7 4.9 6.9 9.7 5.8 8.2 7.8 15.0 11.8 3.6 2.1 2.4 2.6 5.0 2.7 2.4 2.1 2.0 2.2 2.3 2.0 2.3 1.8 1.8 1.7 2.3 1.9 1.8 1.7 1.6 4.6 11.9 7.8 5.3 3.4 6.3 10.1 20.4 22.4 21.5 22.9 16.2 19.8 20.3 22.1 24.8
4.3 2.3 11.9 7.0 9.6 2.3 8.3 5.7 7.2 8.5 4.9 1.8 5.6 11.0 13.1 10.6 7.0 6.2 4.4 4.4 5.5 2.1 2.0 2.2 1.8 1.5 1.7 2.1 2.5 3.6 4.5 4.1 4.8 3.5 2.7 2.5 2.3 4.8 5.1 4.8 4.3 7.4 6.4 13.6 16.2 18.7 14.7 23.2 25.8 25.2 23.4 24.9 27.5 24.5
6.1 3.3 4.4 15.3 6.9 6.1 9.9 8.8 7.1 3.4 2.1 4.1 14.7 9.3 7.9 4.6 10.8 7.5 6.9 5.8 5.7 4.6 5.5 7.2 10.6 10.9 6.6 4.9 7.6 6.0 8.2 10.1 8.3 10.9 13.9 14.2 13.3 11.8 7.4 8.9 9.8 13.3 12.0 13.4 7.8 10.2 12.5 18.7 21.8 24.8 21.5 29.1 28.4 31.0
6.3 2.4 7.3 9.0 12.0 8.6 16.7 10.8 13.6 10.7 1.3 4.0 2.1 2.1 3.2 8.8 14.0 8.1 9.0 8.1 9.6 20.2 28.4 23.0 21.3 20.3 29.4 21.6 18.8 13.4 13.9 15.7 13.3 19.7 23.5 18.0 15.1 14.5 16.6 20.4 19.7 18.4 17.6 31.0 20.9 11.3 9.1 21.5 17.4 31.3 27.4 25.3 27.6 31.2
2.0 6.6 9.4 5.1 11.9 19.3 18.2 18.3 18.8 10.0 10.2 16.2 17.2 19.2 14.8 11.4 13.2 10.0 8.1 11.6 11.6 32.9 34.4 37.1 35.8 32.8 29.8 20.6 31.5 28.8 21.5 28.0 12.6 9.2 8.2 12.4 17.0 22.3 23.4 20.9 21.6 24.1 24.5 23.8 29.5 24.9 23.8 27.6 27.4 26.9 21.3 19.1 21.0 22.3
10.7 17.4 18.9 11.4 15.2 25.6 13.4 28.4 22.0 19.8 25.0 24.8 29.3 23.5 29.5 26.1 16.9 13.6 16.5 24.6 28.8 31.1 8.9 27.0 37.8 19.5 17.3 14.8 22.3 17.3 9.7 13.5 14.1 14.1 11.8 18.0 20.7 23.5 15.4 13.1 27.4 27.6 23.4 25.7 22.4 23.5 19.7 26.0 25.8 28.2 25.2 22.0 20.5 18.9
25.9 18.8 14.5 13.1 27.2 14.4 18.1 20.8 5.6 20.8 19.1 23.4 27.8 25.6 26.7 22.8 15.2 20.5 10.0 22.3 27.1 28.0 24.4 31.3 32.7 36.6 19.9 16.0 14.9 16.9 11.5 15.4 14.9 10.4 9.2 9.1 9.1 10.3 18.2 25.6 29.4 24.0 15.9 21.3 24.1 22.6 19.1 14.7 18.2 18.8 20.6 23.5 21.7 20.1
Water_Equivalent
nan nan nan nan nan nan nan nan nan nan nan nan nan nan nan nan nan 0.00 0.00 0.00 0.00 0.02 0.03 0.00 0.00 0.00 0.00 0.00 0.03 0.00 0.14 0.05 0.06 0.13 0.14 0.14 0.17 0.02 0.05 0.01 0.01 0.06 0.24 0.58 0.19 0.16 0.22 0.00 0.00 0.01 0.04 0.00 0.00 0.02
nan nan nan nan nan nan nan nan nan nan nan nan nan nan nan nan nan nan 0.00 0.00 0.00 0.00 0.03 0.00 0.00 0.00 0.00 0.00 0.00 0.00 0.02 0.01 0.00 0.01 0.04 0.03 0.15 0.22 0.01 0.30 0.03 0.58 0.11 0.24 0.06 0.19 0.00 0.00 0.00 0.00 0.00 0.00 0.01 0.01
nan nan nan nan nan nan nan nan nan nan nan nan nan nan nan nan nan nan 0.00 0.00 0.00 0.06 0.04 0.01 0.00 0.00 0.00 0.00 0.00 0.03 0.00 0.00 0.03 0.00 0.12 0.08 0.07 0.06 0.33 0.14 0.08 0.00 0.00 0.13 0.01 0.01 0.00 0.00 0.00 0.00 0.00 0.00 0.00 0.00
nan nan nan nan nan nan nan nan nan nan nan nan nan nan nan nan nan nan 0.00 0.00 0.00 0.00 0.71 0.17 0.00 0.00 0.00 0.00 0.00 0.00 0.00 0.00 0.00 0.00 0.11 0.12 0.17 0.00 0.11 0.07 0.19 0.20 0.08 0.04 0.01 0.00 0.00 0.00 0.00 0.00 0.00 0.00 0.00 0.00
nan nan nan nan nan nan nan nan nan nan nan nan nan nan nan nan nan nan 0.00 0.00 0.00 0.03 0.32 0.07 0.00 0.00 0.00 0.00 0.00 0.00 0.00 0.00 0.00 0.03 0.23 0.15 0.00 0.03 0.00 0.04 0.34 0.06 0.24 0.51 0.68 0.01 0.02 0.00 0.00 0.00 0.00 0.00 0.00 0.00
nan nan nan nan nan nan nan nan nan nan nan nan nan nan nan nan nan 0.00 0.33 0.00 0.00 0.00 0.17 0.50 0.00 0.00 0.00 0.00 0.00 0.00 0.00 0.00 0.00 0.01 0.10 0.00 0.00 0.02 0.29 0.04 0.00 0.01 0.02 0.05 0.40 0.01 0.01 0.01 0.00 0.00 0.02 0.03 0.02 0.08
nan nan nan nan nan nan nan nan nan nan nan nan nan nan nan nan 0.00 0.00 0.01 0.00 nan 0.00 0.31 0.51 0.15 0.00 0.00 0.00 0.00 0.00 0.00 0.00 0.00 0.00 0.04 0.00 0.00 0.00 0.12 0.08 0.00 0.00 0.00 0.01 0.01 0.04 0.24 0.10 0.72 0.04 0.01 0.02 0.02 0.00
nan nan nan nan nan nan nan nan nan nan nan nan nan nan nan nan nan 0.00 0.00 nan nan 0.02 0.04 0.79 0.41 0.09 0.00 0.10 0.09 0.00 0.01 0.02 0.01 0.00 0.05 0.02 0.00 0.04 0.09 0.00 0.00 0.00 0.00 0.00 0.00 0.00 0.02 0.02 0.02 0.02 0.00 0.00 0.00 0.00
nan nan nan nan nan nan nan nan nan nan nan nan nan nan 0.00 0.00 0.12 0.00 nan nan 0.00 0.06 0.25 0.76 0.42 1.41 0.00 0.10 0.05 0.02 0.00 0.64 0.00 0.19 0.07 0.00 0.05 0.11 0.01 0.00 0.00 0.00 0.00 0.00 0.00 0.00 0.00 0.00 0.00 0.00 0.00 0.00 0.00 0.00
nan nan nan nan nan nan nan nan nan nan nan nan 0.00 0.25 2.42 0.06 nan nan 0.00 0.17 0.23 0.13 0.06 0.27 0.02 0.54 0.08 0.12 0.28 0.20 0.10 0.27 0.56 0.20 0.00 0.13 0.05 0.01 0.00 0.00 0.00 0.00 0.00 0.00 0.00 0.00 0.00 0.00 0.00 0.00 0.00 0.00 0.00 0.00
nan nan nan nan nan nan nan nan nan nan nan 0.06 0.68 0.28 0.00 nan 0.00 0.05 1.50 0.91 0.36 0.27 0.02 0.04 0.01 0.14 0.00 0.41 0.56 0.14 0.65 0.38 0.63 0.09 0.22 0.21 0.25 0.09 0.01 0.00 0.00 0.00 0.00 0.00 0.00 0.00 0.00 0.00 0.00 0.00 0.00 0.00 0.00 0.00
nan nan nan nan nan nan nan nan nan 0.01 0.04 0.00 0.00 0.00 0.00 0.04 0.58 0.86 1.16 0.55 0.11 0.04 0.08 0.14 0.13 0.05 0.09 0.00 0.31 0.53 0.24 0.41 0.15 0.04 0.90 0.46 0.49 0.02 0.00 0.01 0.00 0.00 0.00 0.00 0.00 0.00 0.00 0.00 0.00 0.00 0.01 0.04 0.09 0.27
nan nan nan nan nan nan nan nan nan nan nan 0.00 0.04 0.11 0.37 1.16 5.41 0.86 0.97 0.50 1.36 0.15 0.24 0.15 1.34 0.12 0.11 0.01 0.68 0.72 1.53 1.32 0.08 2.36 0.49 0.33 0.06 0.02 0.02 0.00 0.00 0.00 0.00 0.00 0.00 0.00 0.00 0.02 0.01 0.05 0.29 0.37 0.42 0.39
nan nan nan nan nan nan nan nan nan 0.00 0.00 0.18 0.30 5.21 1.91 1.27 0.47 0.35 0.21 0.18 0.26 0.18 0.12 0.09 0.23 0.15 0.18 0.46 0.49 1.40 0.57 0.64 1.77 1.21 0.61 0.41 0.06 0.04 0.02 0.02 0.02 0.10 0.11 0.07 0.19 0.07 0.11 0.20 0.31 0.47 0.70 0.76 0.47 0.21
nan nan nan nan nan nan nan nan nan 0.00 0.11 0.51 0.21 2.99 1.23 0.59 0.56 0.67 0.43 0.33 0.21 0.11 0.10 0.17 0.12 0.08 0.47 1.19 0.43 0.24 1.47 1.47 0.86 0.84 0.63 0.47 0.06 0.03 0.14 0.10 0.15 0.37 0.68 0.55 0.61 0.83 0.98 0.63 0.38 0.54 0.53 0.44 0.28 0.79
nan nan 0.00 nan nan nan nan nan 0.03 0.05 0.13 0.18 0.09 0.58 0.58 1.30 2.75 2.59 1.41 1.22 0.12 0.17 0.14 0.18 0.19 0.58 0.76 0.55 0.18 0.56 0.31 0.94 0.89 0.51 0.36 0.16 0.08 0.14 0.17 0.38 0.54 0.57 0.50 0.60 0.60 0.50 0.80 1.00 1.02 0.75 0.78 0.82 1.43 1.26
nan 0.02 nan nan nan nan nan 0.08 0.06 0.05 0.23 0.03 2.12 0.60 1.09 1.06 1.84 1.54 0.87 0.41 0.14 0.49 1.83 0.53 0.75 0.13 0.33 0.47 0.07 0.21 1.30 0.70 0.54 0.40 0.29 0.07 0.25 0.38 0.51 0.41 0.58 0.41 0.50 0.52 0.56 0.50 0.54 0.55 0.53 0.37 0.64 0.80 0.62 0.69
0.02 0.00 nan nan nan nan 0.36 0.05 0.12 0.17 0.11 0.52 1.91 1.83 0.94 0.96 1.45 1.27 0.78 0.37 0.39 0.26 0.22 0.08 0.22 0.09 1.21 0.24 0.88 0.65 0.54 0.63 0.36 0.49 0.51 0.46 0.44 0.54 0.32 0.29 0.39 0.31 0.37 0.49 0.38 0.46 0.42 0.43 0.40 0.54 0.33 0.40 0.41 0.52
0.00 0.00 nan nan 0.00 0.12 0.31 0.08 0.03 0.29 1.01 0.71 0.78 0.63 0.65 1.41 0.90 0.65 0.95 0.70 0.29 0.14 0.29 0.30 0.41 0.48 0.78 0.39 0.78 0.97 0.90 0.59 0.74 0.90 0.93 0.91 0.65 0.61 0.55 0.43 0.36 0.39 0.38 0.38 0.27 0.37 0.42 0.37 0.30 0.33 0.33 0.39 0.42 0.56
nan nan nan nan nan 0.06 0.02 0.29 0.03 0.07 0.59 0.74 0.41 0.55 0.62 0.92 0.86 2.08 1.36 0.40 0.22 0.30 0.48 0.52 0.68 0.82 0.63 0.66 0.76 0.93 0.71 0.57 0.41 0.71 0.89 0.96 1.04 0.60 0.71 0.51 0.60 0.43 0.38 0.30 0.44 0.35 0.38 0.37 0.34 0.36 0.36 0.42 0.75 0.93
nan nan nan 0.00 0.03 0.00 0.09 0.26 0.09 0.17 0.39 0.39 0.41 0.16 1.05 0.31 0.72 1.24 0.81 0.17 1.10 0.66 0.52 0.60 1.07 0.71 0.67 1.00 0.73 0.52 0.59 0.27 0.49 0.38 0.52 0.83 1.00 0.53 0.59 0.69 0.48 0.45 0.36 0.51 0.84 0.73 0.59 0.59 0.50 0.43 2.30 2.71 1.73 1.25
0.00 nan 0.06 0.02 0.12 0.08 0.42 0.11 0.15 0.19 0.37 0.51 0.36 0.18 1.18 2.72 2.43 1.40 0.19 0.73 0.50 0.70 0.47 0.60 0.66 0.60 0.51 0.50 0.74 0.40 0.68 0.27 0.30 0.36 0.39 0.34 0.66 0.62 0.66 0.71 0.49 0.75 0.63 0.92 0.57 1.10 0.71 0.40 0.56 0.71 1.58 2.53 0.99 1.22
nan 0.04 0.17 0.07 0.41 1.12 2.41 0.13 0.27 0.20 0.91 0.81 0.31 0.50 1.19 1.04 0.67 0.07 1.12 0.32 0.64 0.82 0.65 0.50 0.52 0.49 0.53 0.68 0.33 0.37 0.61 0.28 0.50 0.67 0.76 0.66 0.59 0.74 0.67 0.61 0.64 1.19 0.91 0.57 0.38 0.61 0.75 0.86 0.92 2.26 1.59 1.65 1.68 3.47
nan 0.46 1.28 1.05 0.80 2.91 0.47 1.51 0.12 0.23 0.32 0.66 0.64 0.85 0.16 0.45 0.20 0.76 0.93 0.78 0.83 0.49 0.44 0.50 0.53 0.66 0.42 0.17 0.37 0.50 0.65 0.38 0.35 0.43 0.59 0.48 0.50 0.60 0.44 0.43 0.56 0.49 0.38 0.31 0.48 0.91 0.90 2.40 2.15 1.05 2.61 4.68 5.52 4.55
2.09 3.30 2.06 3.99 1.04 2.28 1.88 1.55 0.70 0.39 1.20 1.13 0.72 1.06 2.17 0.26 1.21 1.02 0.34 0.60 0.55 0.72 0.60 0.55 0.32 0.35 0.32 0.58 0.51 0.50 0.29 0.31 0.37 0.37 0.55 0.48 0.58 0.61 0.46 0.32 0.34 0.38 0.45 1.86 2.37 3.08 3.07 2.96 3.19 2.94 1.75 5.16 1.65 2.08
4.44 3.86 3.31 1.39 2.48 1.36 0.78 1.49 1.57 1.89 1.06 1.30 1.30 0.67 0.87 1.35 1.11 1.11 0.32 0.85 1.30 0.78 3.15 2.35 1.33 0.54 0.36 0.30 0.36 0.32 0.36 0.32 0.27 0.33 0.42 0.31 0.34 1.16 1.43 1.16 0.97 0.82 0.60 1.39 2.40 3.92 2.88 3.20 3.56 1.81 3.27 1.91 2.48 4.28
3.82 3.60 0.40 0.13 0.26 0.14 2.01 1.81 0.43 1.13 1.26 1.58 1.11 1.52 1.65 2.20 1.86 0.54 0.32 0.35 0.34 0.69 0.45 0.43 0.38 0.32 0.32 0.30 0.27 0.34 0.29 0.31 0.29 0.31 0.29 0.28 0.27 0.26 0.85 1.96 1.13 0.80 0.62 1.32 2.18 4.45 4.37 4.09 4.33 2.85 3.47 3.79 4.10 4.45
0.95 0.54 1.65 1.58 2.03 0.52 1.55 1.10 1.33 1.46 0.99 0.39 1.02 1.64 2.04 1.75 0.92 0.78 0.49 0.59 0.83 0.37 0.34 0.40 0.34 0.26 0.29 0.34 0.40 0.59 0.78 0.71 0.90 0.67 0.53 0.49 0.44 0.90 0.91 0.95 0.87 2.43 1.34 2.85 3.59 3.88 3.00 4.57 4.92 4.84 4.18 4.22 4.54 4.21
1.20 0.80 0.94 1.77 1.10 1.15 1.48 1.62 1.30 0.61 0.36 0.84 2.81 1.34 1.10 0.53 1.30 0.86 0.72 0.69 0.88 0.79 0.84 1.08 1.47 1.93 1.02 0.80 1.22 0.96 1.28 1.54 1.35 1.43 1.98 1.96 2.01 1.71 1.17 1.44 1.60 2.16 2.02 2.22 2.58 2.62 2.54 3.19 3.76 4.21 4.33 4.85 4.56 4.97
1.09 0.69 1.42 1.41 1.34 1.13 2.49 1.70 2.26 1.81 0.21 0.70 0.39 0.34 0.40 0.97 1.46 1.02 1.14 1.04 1.33 3.19 4.85 3.81 3.49 3.29 4.75 3.31 2.75 2.02 2.30 2.96 2.42 3.35 3.62 2.62 2.17 2.09 2.47 3.16 3.12 3.01 2.94 5.53 3.14 1.47 2.51 3.30 3.71 4.75 4.07 3.64 3.98 4.26
0.57 1.76 2.03 1.16 1.73 3.32 3.10 3.53 3.61 1.82 1.96 3.12 3.32 3.48 2.21 1.46 1.66 1.18 0.97 1.45 1.55 5.71 6.11 6.33 6.10 6.33 4.93 3.03 5.05 4.49 2.95 4.70 1.90 1.38 1.33 2.07 2.57 3.51 3.77 3.28 3.46 3.92 4.08 3.77 4.66 3.28 3.01 3.75 4.04 4.05 2.88 2.53 2.52 2.64
2.30 3.58 2.78 1.53 2.37 4.60 2.51 5.63 4.40 3.86 4.93 4.44 5.08 4.29 4.84 3.90 2.19 1.64 1.85 3.18 4.09 4.72 2.64 3.83 5.86 2.60 2.49 2.24 3.91 3.02 3.06 1.80 1.85 1.82 1.90 2.57 3.22 3.71 2.32 1.93 4.53 4.60 3.70 3.99 3.30 3.37 2.74 3.48 3.29 3.68 3.11 2.71 2.43 2.16
5.41 3.86 2.56 2.21 4.75 2.72 3.12 4.05 1.10 3.64 3.20 3.70 4.27 3.80 3.93 3.13 1.85 2.39 1.05 2.78 3.54 3.79 3.13 4.39 4.68 5.61 2.82 2.41 2.17 2.40 2.77 2.05 2.59 3.44 3.02 3.01 2.99 2.87 2.63 3.98 4.80 3.69 2.25 3.10 3.47 3.08 2.65 1.96 2.08 2.34 2.40 2.75 2.47 2.25
SL_Ratio
nan nan nan nan nan nan nan nan nan nan nan nan nan nan nan nan nan nan nan nan nan 4.8 5.1 nan nan nan nan nan 4.3 nan 4.3 4.3 3.3 4.1 4.2 4.3 3.0 3.5 4.1 4.1 4.7 4.9 3.7 3.6 3.5 4.0 4.8 nan nan 5.3 5.0 nan 4.0 3.6
nan nan nan nan nan nan nan nan nan nan nan nan nan nan nan nan nan nan nan nan nan 3.8 5.2 nan nan nan nan nan nan nan 3.9 2.6 4.3 4.2 3.3 3.1 3.0 2.9 4.3 5.0 3.0 5.3 4.5 5.0 5.1 5.3 4.3 nan nan 0.0 nan 5.0 4.1 3.6
nan nan nan nan nan nan nan nan nan nan nan nan nan nan nan nan nan nan nan nan nan 3.6 5.0 5.5 nan nan nan nan nan 3.9 nan nan 2.5 0.0 3.9 3.4 5.2 4.0 4.0 4.2 4.0 4.0 nan 4.3 4.5 4.4 nan nan nan nan nan nan nan nan
nan nan nan nan nan nan nan nan nan nan nan nan nan nan nan nan nan nan nan nan nan nan 4.2 5.7 nan nan nan nan nan nan nan nan nan nan 3.1 3.3 3.1 nan 3.5 4.0 4.6 4.2 4.0 4.3 4.2 nan nan nan nan nan nan nan nan 2.9
nan nan nan nan nan nan nan nan nan nan nan nan nan nan nan nan nan nan nan nan nan 3.7 4.5 5.1 nan nan nan nan nan nan nan nan nan 2.9 2.5 3.0 nan 3.1 nan 3.6 3.4 4.0 4.0 4.5 4.3 4.0 4.0 4.3 nan nan nan nan 4.0 5.0
nan nan nan nan nan nan nan nan nan nan nan nan nan nan nan nan nan nan 2.8 nan nan nan 3.8 4.3 5.0 nan nan nan nan nan nan nan nan 2.9 2.7 3.1 nan 3.6 2.8 2.9 4.0 4.7 3.3 4.3 4.0 3.8 3.6 3.8 4.3 10.0 4.0 3.5 3.3 3.8
nan nan nan nan nan nan nan nan nan nan nan nan nan nan nan nan nan nan 3.9 nan nan nan 3.2 3.8 4.4 nan nan nan nan nan nan nan nan nan 2.7 nan nan 5.6 2.6 2.8 5.0 nan 5.0 3.7 3.9 3.4 3.5 3.7 3.3 3.5 3.7 4.0 3.6 4.0
nan nan nan nan nan nan nan nan nan nan nan nan nan nan nan nan nan nan nan nan nan 2.5 3.4 3.5 3.8 3.6 nan 3.2 3.1 nan 2.5 2.5 3.6 nan 2.8 2.6 nan 2.6 3.2 nan nan nan nan nan nan nan 3.7 4.1 3.8 3.5 3.8 nan nan nan
nan nan nan nan nan nan nan nan nan nan nan nan nan nan nan nan 2.5 nan nan nan nan 3.5 3.8 2.5 2.8 3.2 nan 3.0 2.5 2.5 2.2 3.7 2.5 3.4 2.6 0.0 2.5 3.5 4.3 nan nan nan nan nan nan nan nan nan nan nan 3.8 5.0 nan nan
nan nan nan nan nan nan nan nan nan nan nan nan nan 2.6 3.6 2.6 nan nan 2.5 3.1 3.4 3.3 3.4 2.9 2.5 3.2 2.9 2.5 3.2 3.4 3.0 3.2 3.8 2.8 4.3 3.0 3.2 4.4 nan nan nan nan nan nan nan nan nan nan nan nan nan nan nan nan
nan nan nan nan nan nan nan nan nan nan nan 3.1 3.3 2.7 nan nan nan 3.2 4.1 4.1 3.6 3.7 2.7 2.7 2.5 2.5 2.5 3.6 3.3 3.2 3.6 3.7 3.6 3.4 2.9 3.7 5.3 5.5 5.0 nan nan nan nan nan nan nan nan nan nan nan nan nan nan nan
nan nan nan nan nan nan nan nan nan 2.6 2.8 nan nan nan 0.0 3.0 3.6 4.1 3.8 3.6 3.1 2.6 2.6 2.5 2.5 2.5 2.5 nan 3.9 3.6 3.7 3.6 3.6 3.1 3.6 4.1 4.8 4.9 nan 5.7 nan nan nan nan nan nan nan nan nan 4.0 4.6 4.6 5.1 5.5
nan nan nan nan nan nan nan nan nan nan nan nan 2.7 3.6 3.8 3.1 5.3 3.2 4.1 3.2 2.9 2.5 2.5 2.5 2.5 2.5 2.5 2.4 3.6 3.6 3.7 3.8 3.1 4.2 4.9 5.0 5.7 4.8 5.1 5.0 3.3 nan nan nan nan nan nan 3.5 3.2 4.1 6.5 6.9 6.3 7.6
nan nan nan nan nan nan nan nan nan nan nan 3.7 3.7 6.0 3.4 2.9 3.6 3.4 3.3 2.5 2.5 2.5 2.6 2.6 2.5 3.0 2.5 2.8 3.5 3.3 3.5 4.1 4.4 5.3 5.3 5.5 5.4 5.3 5.1 5.6 4.7 4.7 4.1 4.4 3.9 4.4 4.8 6.1 7.2 6.5 6.0 5.8 6.2 8.6
nan nan nan nan nan nan nan nan nan nan 3.4 4.0 3.5 5.2 3.9 3.4 3.2 2.9 2.5 2.5 2.8 2.5 2.5 2.8 2.8 4.2 3.1 2.9 3.1 3.0 3.5 3.9 4.8 5.0 5.3 5.2 5.3 5.1 4.9 4.9 5.2 6.0 5.7 6.5 6.3 5.3 5.8 6.8 8.2 8.8 8.5 8.8 9.3 7.8
nan nan nan nan nan nan nan nan 2.7 3.6 3.8 4.0 3.8 3.8 3.5 3.3 3.8 3.0 2.8 2.7 3.0 3.1 3.0 3.3 3.5 3.2 3.4 3.2 3.4 3.5 4.3 5.2 5.0 4.9 4.6 4.0 5.0 5.2 5.3 6.2 6.9 7.1 7.1 7.4 7.6 7.7 7.2 6.9 6.8 8.9 8.9 9.0 7.6 7.6
nan 2.7 nan nan nan nan nan 4.5 3.2 5.3 3.7 4.2 4.1 3.6 3.5 3.4 4.0 3.8 3.6 4.0 3.9 3.5 3.1 3.7 4.3 4.5 4.0 3.8 4.4 4.1 4.4 5.0 5.0 5.5 4.9 4.7 5.5 5.9 7.0 7.1 6.9 7.7 8.1 8.2 8.4 8.7 9.2 9.0 8.9 9.5 9.2 9.8 10.0 10.9
2.5 nan nan nan nan nan 4.5 3.3 3.3 3.7 4.2 4.1 5.3 5.4 4.4 4.4 4.5 3.7 3.9 4.1 3.8 4.2 4.3 4.6 4.9 3.8 3.7 4.7 5.1 5.5 5.9 5.4 4.7 5.0 5.4 5.4 5.5 6.5 6.0 6.4 7.9 7.7 8.5 8.5 8.7 9.1 9.5 9.3 10.2 8.2 10.6 11.0 11.3 11.8
nan nan nan nan nan 4.5 4.4 3.0 2.6 4.1 5.2 4.3 4.9 4.3 4.3 5.2 4.9 4.7 4.3 4.1 4.2 4.1 4.7 4.5 4.5 5.1 5.6 5.8 5.7 5.6 5.4 5.5 7.3 6.8 7.3 7.2 6.8 7.5 8.0 8.2 8.4 8.9 9.1 9.1 7.7 7.0 7.1 8.7 7.4 7.0 7.1 7.5 8.0 9.8
nan nan nan nan nan 2.7 3.3 3.0 2.7 3.7 4.6 5.4 3.9 4.8 5.1 5.7 4.5 3.9 3.9 4.2 4.4 4.5 5.1 5.4 6.4 6.6 6.8 6.6 6.1 5.9 5.4 4.9 5.6 7.4 8.2 8.2 7.0 8.0 8.2 7.7 7.0 6.9 6.9 7.5 7.0 4.1 6.6 6.6 7.2 7.2 7.4 7.6 7.4 8.1
nan nan nan nan 2.5 0.0 2.5 3.2 3.3 3.4 4.1 5.3 4.2 3.4 6.3 3.7 4.2 4.4 4.3 4.2 3.8 5.6 6.4 6.7 6.2 7.0 6.9 6.6 5.8 5.4 5.9 5.3 6.0 5.7 6.2 9.5 7.8 6.3 6.7 6.4 5.9 5.9 6.6 7.8 6.7 8.0 6.2 7.8 8.4 7.6 5.2 4.9 5.1 5.0
nan nan 2.5 2.5 2.5 2.5 3.4 2.7 3.4 3.4 4.0 4.0 4.0 3.3 4.6 4.5 4.4 4.5 3.6 4.3 6.4 7.3 6.5 7.1 7.4 7.3 7.4 7.6 7.4 7.0 7.0 7.1 7.2 5.8 4.3 5.3 8.1 8.1 8.1 7.6 6.9 8.0 7.6 7.0 6.9 6.5 7.1 7.3 5.7 5.4 4.8 4.6 5.0 5.4
nan 2.5 2.5 2.5 3.2 4.2 6.6 3.6 3.4 3.7 4.0 4.2 3.5 4.3 4.5 4.6 4.6 3.1 4.7 6.4 7.4 6.7 6.9 7.2 7.5 7.6 8.0 8.4 8.3 7.9 7.7 7.5 7.4 7.4 7.4 7.6 7.5 6.7 6.9 7.5 6.7 6.7 7.2 8.1 6.7 6.3 6.2 3.6 4.9 4.6 4.6 4.8 5.3 5.3
nan 3.1 3.6 3.4 3.8 5.1 3.0 3.6 2.9 3.2 3.2 3.7 3.8 4.7 4.9 4.3 3.9 4.3 5.6 6.8 7.7 7.5 7.6 8.7 7.2 7.5 7.6 8.4 7.6 8.0 7.3 6.2 7.0 7.2 6.4 6.8 7.8 8.6 7.3 7.4 6.7 6.3 6.6 6.4 5.4 5.0 5.2 4.7 3.4 5.5 5.1 4.9 4.9 5.3
5.7 6.1 3.6 7.3 3.2 4.0 4.1 3.7 4.0 3.7 5.1 4.2 4.7 4.8 6.0 3.3 5.5 5.1 5.9 6.9 6.6 6.4 6.8 6.6 6.2 6.2 7.0 7.6 8.0 8.3 8.7 6.1 7.1 7.9 7.5 6.6 6.6 6.6 7.6 7.4 7.3 6.8 5.4 4.9 5.2 4.8 4.9 4.9 5.1 5.2 5.4 5.1 5.7 5.7
7.3 4.1 4.8 3.7 4.6 4.0 4.4 5.5 5.7 5.0 4.9 5.2 4.7 4.5 3.5 4.7 5.7 6.7 6.1 6.4 6.1 6.8 5.5 5.8 6.6 7.5 8.0 6.8 8.4 8.9 8.2 6.0 5.8 7.4 8.6 7.2 7.0 6.0 6.3 6.8 7.2 7.0 5.4 4.6 5.2 5.1 5.1 5.2 5.3 5.7 5.6 5.3 3.7 5.3
7.2 5.1 4.0 4.4 4.2 4.0 5.0 4.3 3.9 4.3 5.5 6.1 5.2 5.4 4.7 6.8 6.3 6.6 6.6 7.0 7.5 7.2 6.1 5.7 5.6 6.2 6.9 7.6 7.3 6.7 6.0 5.6 6.0 7.4 6.5 6.5 6.4 6.2 5.4 6.1 6.9 6.7 5.5 4.8 4.6 4.6 5.1 5.3 5.3 5.7 5.7 5.4 5.4 5.6
4.6 4.2 7.2 4.4 4.7 4.4 5.4 5.2 5.4 5.8 4.9 4.7 5.5 6.7 6.4 6.1 7.6 8.0 8.9 7.4 6.6 5.7 5.9 5.6 5.2 5.6 5.9 6.3 6.3 6.1 5.8 5.7 5.3 5.1 5.0 5.0 5.1 5.4 5.6 5.1 5.0 3.0 4.8 4.8 4.5 4.8 4.9 5.1 5.3 5.2 5.6 5.9 6.0 5.8
5.1 4.2 4.6 8.6 6.3 5.3 6.7 5.4 5.5 5.6 5.9 4.9 5.2 6.9 7.1 8.7 8.3 8.8 9.5 8.4 6.5 5.9 6.5 6.7 7.2 5.7 6.5 6.1 6.2 6.2 6.4 6.6 6.2 7.7 7.0 7.3 6.7 6.9 6.3 6.2 6.1 6.2 6.0 6.0 3.0 3.9 4.9 5.9 5.8 5.9 5.0 6.0 6.2 6.2
5.8 3.5 5.1 6.4 9.0 7.6 6.7 6.3 6.0 5.9 6.2 5.8 5.4 6.2 8.1 9.0 9.6 7.9 7.9 7.8 7.2 6.3 5.9 6.0 6.1 6.2 6.2 6.5 6.8 6.6 6.0 5.3 5.5 5.9 6.5 6.9 7.0 6.9 6.7 6.5 6.3 6.1 6.0 5.6 6.7 7.7 3.6 6.5 4.7 6.6 6.7 7.0 6.9 7.3
3.6 3.7 4.6 4.4 6.9 5.8 5.9 5.2 5.2 5.5 5.2 5.2 5.2 5.5 6.7 7.8 7.9 8.4 8.3 8.0 7.5 5.8 5.6 5.9 5.9 5.2 6.0 6.8 6.2 6.4 7.3 6.0 6.6 6.7 6.2 6.0 6.6 6.3 6.2 6.4 6.2 6.1 6.0 6.3 6.3 7.6 7.9 7.4 6.8 6.6 7.4 7.6 8.3 8.5
4.6 4.8 6.8 7.4 6.4 5.6 5.3 5.0 5.0 5.1 5.1 5.6 5.8 5.5 6.1 6.7 7.7 8.3 8.9 7.7 7.0 6.6 3.4 7.0 6.5 7.5 6.9 6.6 5.7 5.7 3.2 7.5 7.6 7.7 6.2 7.0 6.4 6.4 6.6 6.8 6.1 6.0 6.3 6.4 6.8 7.0 7.2 7.5 7.8 7.7 8.1 8.1 8.4 8.8
4.8 4.9 5.6 5.9 5.7 5.3 5.8 5.1 5.1 5.7 5.9 6.3 6.5 6.7 6.8 7.3 8.2 8.6 9.5 8.0 7.6 7.4 7.8 7.1 7.0 6.5 7.1 6.6 6.9 7.0 4.2 7.5 5.8 3.0 3.0 3.0 3.0 3.6 6.9 6.4 6.1 6.5 7.1 6.9 6.9 7.3 7.2 7.5 8.8 8.0 8.6 8.5 8.8 8.9